Regional Weather Roundup
Issued by NWS Cleveland, OH

Home | Current Version | Previous Version | Graphics & Text | Print | Product List | Glossary On
Versions: 1 2 3 4 5 6 7 8 9 10 11 12 13 14 15 16 17 18 19 20 21 22 23 24 25 26 27 28 29 30 31 32 33 34 35 36 37 38 39 40 41 42 43 44 45 46 47 48 49 50
000
ASUS41 KCLE 242200
RWRCLE
OHIO REGIONAL WEATHER ROUNDUP
NATIONAL WEATHER SERVICE WILMINGTON, OH
600 PM EDT SAT JUN 24 2017

NOTE: "FAIR" INDICATES FEW OR NO CLOUDS BELOW 12,000 FEET WITH NO
SIGNIFICANT WEATHER AND/OR OBSTRUCTIONS TO VISIBILITY.

OHZ001>008-015>018-024>027-034-035-043-044-242300-
   NORTHWEST OHIO

CITY           SKY/WX    TMP DP  RH WIND       PRES   REMARKS
DEFIANCE       PTSUNNY   72  53  51 NW18      29.95S
FINDLAY        PTSUNNY   76  54  46 W15G23    29.94R
TOLEDO EXPRESS FAIR      76  51  41 W17G26    29.93R
TOLEDO EXEC    FAIR      76  53  44 W18G24    29.93R
LIMA           PTSUNNY   74  57  55 W14       29.96S
$$

OHZ009>014-019>023-028>033-038-089-242300-
   NORTHEAST OHIO

CITY           SKY/WX    TMP DP  RH WIND       PRES   REMARKS
CLE-HOPKINS    PTSUNNY   79  53  40 W16       29.93R
CLE-LAKEFRONT  FAIR      75  61  61 NW8       29.90S
CUY CO. ARPT   MOSUNNY   77  55  47 W12G21    29.92F
LORAIN-ELYRIA  PTSUNNY   76  54  46 W10       29.92S
ASHTABULA      FAIR      74  52  46 W16G24    29.92S
AKRON-CANTON   FAIR      78  50  37 W18       29.93F
WOOSTER        NOT AVBL
MANSFIELD      FAIR      76  54  46 W13G22    29.95F
YOUNGSTOWN     PTSUNNY   77  55  46 W10       29.92S
$$

OHZ042-051>053-060>062-070>072-077>081-242300-
  SOUTHWEST OHIO

CITY           SKY/WX    TMP DP  RH WIND       PRES   REMARKS
CINC-COVINGTON PTSUNNY   76  57  51 W13       30.01S
CINC-LUNKEN    FAIR      77  58  51 W13G21    30.00S
HAMILTON       FAIR      77  56  48 W8G20     30.01S
DAYTON         NOT AVBL
WRIGHT-PAT AFB FAIR      78  54  43 SW15      29.98S
DAYTON GENERAL PTSUNNY   77  54  44 W13       29.99S
WILMINGTON     FAIR      75  58  55 W14       29.99S
$$

OHZ036-037-039>041-045>050-054>059-063>069-073>076-082>088-242300-
  CENTRAL AND SOUTHEAST OHIO

CITY           SKY/WX    TMP DP  RH WIND       PRES   REMARKS
COLUMBUS       PTSUNNY   79  57  46 NW16      29.95F
OSU AIRPORT    FAIR      77  58  51 W12       29.96F
BOLTON FIELD   MOSUNNY   77  57  50 W14       29.98F
RICKENBACK AFB NOT AVBL
NEWARK         FAIR      79  55  43 W7        29.95F
MARION         FAIR      77  53  43 W13       29.95F
LANCASTER      FAIR      76  58  53 W8        29.97F
ZANESVILLE     FAIR      78  56  46 W10       29.96S
NEW PHILLY     FAIR      78  56  46 W10       29.95F
$$




USA.gov is the U.S. government's official web portal to all federal, state and local government web resources and services.